Weather History for La Porte, IN

Change the Weather History Date:

Monday, February 11, 2013

  Actual Average (KVPZ) Record (KVPZ)
Temperature  
Mean Temperature 38 °F 26 °F  
Max Temperature 48 °F 34 °F 70 °F (1999)
Min Temperature 29 °F 19 °F -11 °F (2014)
Degree Days  
Heating Degree Days 26 39  
Month to date heating degree days 438  
Since 1 July heating degree days 4123  
Cooling Degree Days 0 0  
Month to date cooling degree days 0  
Year to date cooling degree days 0  
Moisture  
Dew Point 24 °F    
Average Humidity 68    
Maximum Humidity 79    
Minimum Humidity 61    
Precipitation  
Precipitation 0.01 in 0.06 in 1.48 in (2009)
Month to date precipitation 0.53  
Year to date precipitation 2.28  
Sea Level Pressure  
Sea Level Pressure 29.78 in    
Wind  
Wind Speed 20 mph (WSW)    
Max Wind Speed 28 mph    
Max Gust Speed 40 mph    
Visibility 10 miles    
Events      
T = Trace of Precipitation, MM = Missing Value Source: NWS Daily Summary

Daily Weather History Graph

Daily Weather History Graph

Search for Another Location

Airport:

Trip Planner

Search our weather history database for the weather conditions in past years. The results will help you decide how hot, cold, wet, or windy it might be!

Date:

Astronomy

Feb. 11, 2013 Rise Set
Actual Time 6:47 AM CST 5:15 PM CST
Civil Twilight 6:18 AM CST 5:44 PM CST
Nautical Twilight 5:45 AM CST 6:17 PM CST
Astronomical Twilight 5:13 AM CST 6:49 PM CST
Moon 7:09 AM CST (2/11) 7:14 PM CST (2/11)
Length of Visible Light 11h 26m
Length of Day
10h 28m
Waxing Crescent, 3% of the Moon is Illuminated
Feb 11
Waxing Crescent
Feb 17
First Quarter
Feb 25
Full
Mar 4
Last Quarter
Mar 11
New

Hourly Weather History & Observations

Time (CST) Temp. Windchill Dew Point Humidity Pressure Visibility Wind Dir Wind Speed Gust Speed Precip Events Conditions
12:15 AM 48.2 °F - 42.1 °F 79% 29.58 in 10.0 mi WSW 17.3 mph 32.2 mph N/A   Overcast
12:35 AM 46.6 °F - 33.8 °F 61% 29.57 in 10.0 mi WSW 21.9 mph 33.4 mph N/A   Scattered Clouds
12:55 AM 45.5 °F 37.3 °F 34.7 °F 66% 29.57 in 10.0 mi WSW 21.9 mph 31.1 mph N/A   Scattered Clouds
1:15 AM 44.8 °F 36.9 °F 34.3 °F 67% 29.57 in 10.0 mi SW 19.6 mph 29.9 mph N/A   Scattered Clouds
1:35 AM 43.3 °F 35.5 °F 32.5 °F 66% 29.57 in 10.0 mi SW 17.3 mph 25.3 mph N/A   Mostly Cloudy
1:55 AM 42.8 °F 34.3 °F 32.0 °F 66% 29.57 in 10.0 mi SW 19.6 mph 29.9 mph N/A   Scattered Clouds
2:15 AM 42.1 °F 33.9 °F 32.0 °F 67% 29.57 in 10.0 mi WSW 17.3 mph 26.5 mph N/A   Scattered Clouds
2:35 AM 41.0 °F 33.1 °F 32.0 °F 70% 29.58 in 10.0 mi WSW 15.0 mph 21.9 mph N/A   Mostly Cloudy
2:55 AM 40.8 °F 33.3 °F 31.8 °F 70% 29.58 in 10.0 mi WSW 13.8 mph 25.3 mph N/A   Overcast
3:15 AM 40.1 °F 29.2 °F 30.7 °F 69% 29.59 in 10.0 mi SW 26.5 mph 33.4 mph 0.01 in   Mostly Cloudy
3:35 AM 39.4 °F 29.5 °F 29.3 °F 67% 29.59 in 10.0 mi WSW 20.7 mph 34.5 mph 0.01 in   Overcast
3:55 AM 39.0 °F 29.9 °F 29.1 °F 68% 29.60 in 10.0 mi WSW 17.3 mph 26.5 mph 0.01 in   Overcast
4:15 AM 38.1 °F 28.8 °F 29.3 °F 71% 29.61 in 10.0 mi WSW 17.3 mph 24.2 mph N/A   Overcast
4:35 AM 37.2 °F 26.1 °F 27.1 °F 67% 29.62 in 10.0 mi WSW 23.0 mph 34.5 mph N/A   Overcast
4:55 AM 36.5 °F 24.9 °F 27.5 °F 70% 29.63 in 10.0 mi WSW 24.2 mph 34.5 mph N/A   Overcast
5:15 AM 35.4 °F 22.7 °F 25.0 °F 66% 29.64 in 10.0 mi West 27.6 mph 39.1 mph N/A   Overcast
5:55 AM 34.0 °F 21.8 °F 24.6 °F 69% 29.65 in 10.0 mi WSW 23.0 mph 34.5 mph N/A   Overcast
6:15 AM 33.8 °F 22.2 °F 24.1 °F 68% 29.66 in 10.0 mi WSW 20.7 mph 35.7 mph N/A   Overcast
6:35 AM 33.8 °F 22.8 °F 24.6 °F 69% 29.67 in 10.0 mi WSW 18.4 mph 27.6 mph N/A   Overcast
6:55 AM 33.3 °F 21.8 °F 24.8 °F 71% 29.68 in 10.0 mi WSW 19.6 mph 28.8 mph N/A   Overcast
7:15 AM 33.1 °F 21.2 °F 24.4 °F 71% 29.69 in 10.0 mi WSW 20.7 mph 31.1 mph N/A   Overcast
7:35 AM 32.9 °F 20.7 °F 24.8 °F 72% 29.69 in 10.0 mi West 21.9 mph 28.8 mph N/A   Overcast
7:55 AM 32.9 °F 20.7 °F 22.8 °F 66% 29.70 in 10.0 mi West 21.9 mph 36.8 mph N/A   Overcast
8:15 AM 32.9 °F 20.1 °F 22.5 °F 65% 29.71 in 10.0 mi WSW 24.2 mph 33.4 mph N/A   Overcast
8:35 AM 32.7 °F 19.6 °F 22.6 °F 66% 29.72 in 10.0 mi WSW 25.3 mph 33.4 mph N/A   Overcast
8:55 AM 32.5 °F 20.2 °F 22.8 °F 67% 29.72 in 10.0 mi WSW 21.9 mph 31.1 mph N/A   Overcast
9:15 AM 32.7 °F 21.1 °F 23.0 °F 67% 29.72 in 10.0 mi WSW 19.6 mph 26.5 mph N/A   Overcast
9:35 AM 32.7 °F 19.6 °F 23.5 °F 69% 29.72 in 10.0 mi SW 25.3 mph 33.4 mph N/A   Overcast
9:55 AM 32.9 °F 21.0 °F 23.4 °F 68% 29.73 in 10.0 mi WSW 20.7 mph 32.2 mph N/A   Overcast
10:15 AM 32.9 °F 20.4 °F 23.7 °F 69% 29.73 in 10.0 mi WSW 23.0 mph 32.2 mph N/A   Overcast
10:35 AM 32.9 °F 20.7 °F 23.5 °F 68% 29.74 in 10.0 mi WSW 21.9 mph 31.1 mph N/A   Overcast
10:55 AM 32.9 °F 20.4 °F 23.0 °F 67% 29.75 in 10.0 mi WSW 23.0 mph 35.7 mph N/A   Overcast
11:15 AM 33.1 °F 20.6 °F 22.8 °F 66% 29.76 in 10.0 mi WSW 23.0 mph 32.2 mph N/A   Overcast
11:35 AM 32.9 °F 20.1 °F 23.0 °F 67% 29.76 in 10.0 mi WSW 24.2 mph 33.4 mph N/A   Overcast
11:55 AM 32.9 °F 19.3 °F 22.5 °F 65% 29.76 in 10.0 mi West 27.6 mph 40.3 mph N/A   Overcast
12:15 PM 33.1 °F 20.1 °F 22.8 °F 66% 29.77 in 10.0 mi WSW 25.3 mph 35.7 mph N/A   Overcast
12:35 PM 32.9 °F 20.4 °F 22.8 °F 66% 29.78 in 10.0 mi WSW 23.0 mph 34.5 mph N/A   Overcast
12:55 PM 32.9 °F 21.6 °F 23.0 °F 67% 29.79 in 10.0 mi WSW 18.4 mph 27.6 mph N/A   Overcast
1:15 PM 32.9 °F 21.0 °F 23.0 °F 67% 29.79 in 10.0 mi West 20.7 mph 38.0 mph N/A   Overcast
1:35 PM 33.1 °F 19.8 °F 23.7 °F 68% 29.80 in 10.0 mi West 26.5 mph 32.2 mph N/A   Overcast
1:55 PM 32.9 °F 21.0 °F 23.0 °F 67% 29.81 in 10.0 mi West 20.7 mph 35.7 mph N/A   Overcast
2:15 PM 32.4 °F 19.1 °F 23.0 °F 68% 29.81 in 10.0 mi West 25.3 mph 34.5 mph N/A   Overcast
2:35 PM 32.2 °F 19.4 °F 22.6 °F 68% 29.82 in 10.0 mi West 23.0 mph 33.4 mph N/A   Overcast
2:55 PM 32.2 °F 19.7 °F 22.5 °F 67% 29.83 in 10.0 mi West 21.9 mph 35.7 mph N/A   Overcast
3:15 PM 32.2 °F 19.4 °F 22.1 °F 66% 29.85 in 10.0 mi West 23.0 mph 36.8 mph N/A   Overcast
3:35 PM 32.0 °F 19.8 °F 22.1 °F 67% 29.86 in 10.0 mi West 20.7 mph 29.9 mph N/A   Overcast
3:55 PM 32.0 °F 20.5 °F 22.1 °F 67% 29.87 in 10.0 mi West 18.4 mph 28.8 mph N/A   Overcast
4:55 PM 32.0 °F 21.2 °F 21.4 °F 65% 29.90 in 10.0 mi West 16.1 mph 32.2 mph N/A   Overcast
5:15 PM 31.8 °F 20.6 °F 21.9 °F 67% 29.90 in 10.0 mi West 17.3 mph 28.8 mph N/A   Overcast
5:35 PM 31.6 °F 19.7 °F 21.7 °F 67% 29.91 in 10.0 mi West 19.6 mph 34.5 mph N/A   Overcast
5:55 PM 31.1 °F 18.9 °F 21.2 °F 67% 29.92 in 10.0 mi West 19.6 mph 27.6 mph N/A   Overcast
6:15 PM 31.1 °F 18.9 °F 21.2 °F 67% 29.93 in 10.0 mi West 19.6 mph 31.1 mph N/A   Overcast
6:35 PM 31.1 °F 18.9 °F 21.2 °F 67% 29.94 in 10.0 mi West 19.6 mph 26.5 mph N/A   Overcast
6:55 PM 31.1 °F 18.0 °F 21.0 °F 66% 29.94 in 10.0 mi West 23.0 mph 29.9 mph N/A   Overcast
7:15 PM 30.9 °F 19.1 °F 21.2 °F 67% 29.94 in 10.0 mi West 18.4 mph 27.6 mph N/A   Overcast
7:35 PM 30.9 °F 19.4 °F 21.2 °F 67% 29.95 in 10.0 mi West 17.3 mph 25.3 mph N/A   Overcast
7:55 PM 30.7 °F 17.5 °F 21.2 °F 68% 29.95 in 10.0 mi West 23.0 mph 28.8 mph N/A   Overcast
8:15 PM 30.6 °F 18.2 °F 21.2 °F 68% 29.96 in 10.0 mi West 19.6 mph 25.3 mph N/A   Overcast
8:35 PM 30.4 °F 18.7 °F 21.2 °F 69% 29.96 in 10.0 mi West 17.3 mph 25.3 mph N/A   Overcast
8:55 PM 30.2 °F 18.1 °F 21.0 °F 69% 29.96 in 10.0 mi West 18.4 mph 32.2 mph N/A   Overcast
9:15 PM 30.2 °F 20.2 °F 20.3 °F 67% 29.97 in 10.0 mi West 12.7 mph 26.5 mph N/A   Overcast
9:35 PM 30.0 °F 21.1 °F 20.3 °F 67% 29.97 in 10.0 mi WNW 10.4 mph 24.2 mph N/A   Overcast
9:55 PM 30.0 °F 20.5 °F 20.7 °F 68% 29.98 in 10.0 mi West 11.5 mph 16.1 mph N/A   Overcast
10:15 PM 30.0 °F 19.1 °F 20.3 °F 67% 29.98 in 10.0 mi West 15.0 mph 21.9 mph N/A   Overcast
10:35 PM 30.0 °F 19.5 °F 20.3 °F 67% 29.99 in 10.0 mi West 13.8 mph 23.0 mph N/A   Overcast
10:55 PM 30.0 °F 20.5 °F 20.3 °F 67% 29.99 in 10.0 mi WNW 11.5 mph 19.6 mph N/A   Overcast
11:15 PM 29.8 °F 20.9 °F 21.0 °F 70% 30.00 in 10.0 mi West 10.4 mph - N/A   Overcast
11:35 PM 29.7 °F 20.7 °F 20.5 °F 69% 30.01 in 10.0 mi WNW 10.4 mph 18.4 mph N/A   Overcast
11:55 PM 29.3 °F 19.1 °F 19.9 °F 68% 30.01 in 10.0 mi WNW 12.7 mph 23.0 mph N/A   Overcast